Dauntless Aviation
Airports South America Uruguay

Hospital Policial

Montevideo, URUGUAY

Airport Info
Suggest Updated Information for this Airport

Location

Latitude / Longitude: 34°52'4"S / 56°9'6"W
  34°52.068'S / 56°9.114'W
  -34.8678 / -56.1519
Satellite photo at:
Airport distance calculator
From:
Weather Reports

METAR

SUAA
7.8nm NW
SUAA 251100Z 08006KT CAVOK 19/18 Q1017
SUMU
8.1nm NE
SUMU 251100Z 08004KT 5000 BR NSC 19/18 Q1017 BECMG 11/13 CAVOK

TAF

SUAA
7.8nm NW
TAF SUAA 250500Z 2506/2606 06010KT 8000 SCT020 TX28/2518Z TN18/2510Z PROB40 TEMPO 2506/2512 0500 FG OVC003 BECMG 2518/2520 08020KT
SUMU
8.1nm NE
TAF SUMU 250500Z 2506/2606 06010KT 8000 SCT020 TX28/2518Z TN18/2510Z PROB40 TEMPO 2506/2512 0500 FG OVC003 BECMG 2518/2520 08020KT
Safelog

 

Dauntless Aviation

© 2007-2017 Dauntless Aviation, all rights reserved
Information provided via PilotNav comes from a variety of official and unofficial data sources. As errors are possible, do not use PilotNav for primary flight planning purposes. Verify any information that you receive via PilotNav with current and canonical charts and other official documents. The material in this database is subject to database copyrights held by Dauntless Aviation and may not be copied without the express permission of Dauntless Aviation - licenses for use of part of all of this data are available for purchase; enquire via the Dauntless Aviation helpdesk. A number of mechanisms and markers exist in the database to protect against and identify infringement / copyright. Automated queries against this website are stictly prohibited, and all activity is logged and analyzed.